,

(GMT )
Prerov

Weather History for LKPO - May, 2013

Change the Weather History Date:

Monday, May 13, 2013

  Actual Average Record
Temperature  
Mean Temperature 53 °F -  
Max Temperature 60 °F - - ()
Min Temperature 46 °F - - ()
Degree Days  
Heating Degree Days 12    
Growing Degree Days 3 (Base 50)    
Moisture  
Dew Point 42 °F    
Average Humidity 69    
Maximum Humidity 87    
Minimum Humidity 39    
Precipitation  
Precipitation 0.00 in - - ()
Sea Level Pressure  
Sea Level Pressure 29.98 in    
Wind  
Wind Speed 8 mph ()    
Max Wind Speed 14 mph    
Max Gust Speed 20 mph    
Visibility 6.2 miles    
Events      
T = Trace of Precipitation, MM = Missing Value Source: Averaged Metar Reports

Daily Weather History Graph

Daily Weather History Graph

Search for Another Location

Airport or City:

Trip Planner

Search our weather history database for the weather conditions in past years. The results will help you decide how hot, cold, wet, or windy it might be!

Date:

Astronomy

May. 13, 2013 Rise Set
Actual Time 5:09 AM CEST 8:24 PM CEST
Civil Twilight 4:31 AM CEST 9:03 PM CEST
Nautical Twilight 3:40 AM CEST 9:54 PM CEST
Astronomical Twilight 2:35 AM CEST 11:00 PM CEST
Moon 7:37 AM CEST (5/13) 11:23 PM CEST (5/13)
Length of Visible Light 16h 32m
Length of Day
15h 15m
Waxing Crescent, 10% of the Moon is Illuminated
May 13
Waxing Crescent
May 18
First Quarter
May 25
Full
May 31
Last Quarter
Jun 8
New

Hourly Weather History & Observations

Time (CEST) Temp. Windchill Dew Point Humidity Pressure Visibility Wind Dir Wind Speed Gust Speed Precip Events Conditions
12:00 AM 48.2 °F - 44.6 °F 87% 29.95 in - NW 5.8 mph - N/A   Clear
1:00 AM 48.2 °F - 44.6 °F 87% 29.95 in - NW 6.9 mph - N/A   Clear
2:00 AM 48.2 °F - 44.6 °F 87% 29.95 in - NNW 5.8 mph - N/A   Clear
3:00 AM 50.0 °F - 46.4 °F 87% 29.95 in - NW 12.7 mph - N/A   Clear
4:00 AM 50.0 °F - 44.6 °F 82% 29.98 in - NNW 12.7 mph - N/A   Clear
5:00 AM 48.2 °F - 44.6 °F 87% 29.98 in 6.2 mi NNW 9.2 mph - N/A   Mostly Cloudy
6:00 AM 48.2 °F - 44.6 °F 87% 30.01 in 6.2 mi NNW 11.5 mph - N/A   Mostly Cloudy
7:00 AM 46.4 °F 40.4 °F 42.8 °F 87% 30.01 in - NW 13.8 mph - N/A   Clear
8:00 AM 48.2 °F - 42.8 °F 82% 30.01 in - NW 13.8 mph - N/A   Clear
9:00 AM 50.0 °F - 44.6 °F 82% 30.04 in - NW 11.5 mph - N/A   Clear
10:00 AM 51.8 °F - 42.8 °F 71% 30.04 in 6.2 mi NW 10.4 mph - N/A   Scattered Clouds
11:00 AM 55.4 °F - 42.8 °F 63% 30.01 in 6.2 mi NW 13.8 mph - N/A   Scattered Clouds
12:00 PM 53.6 °F - 39.2 °F 58% 30.01 in 6.2 mi NW 13.8 mph - N/A   Scattered Clouds
1:00 PM 57.2 °F - 39.2 °F 51% 30.01 in 6.2 mi NW 10.4 mph - N/A   Scattered Clouds
2:00 PM 59.0 °F - 39.2 °F 48% 30.01 in - NNW 9.2 mph - N/A   Clear
3:00 PM 59.0 °F - 39.2 °F 48% 29.98 in - NW 8.1 mph 19.6 mph N/A   Clear
4:00 PM 60.8 °F - 37.4 °F 42% 29.98 in - NNW 6.9 mph - N/A   Clear
5:00 PM 60.8 °F - 35.6 °F 39% 29.95 in - NNW 6.9 mph 17.3 mph N/A   Clear
6:00 PM 59.0 °F - 35.6 °F 42% 29.95 in - North 4.6 mph - N/A   Clear
7:00 PM 57.2 °F - 39.2 °F 51% 29.95 in - NNW 3.5 mph - N/A   Clear
8:00 PM 53.6 °F - 41.0 °F 62% 29.95 in - WNW 4.6 mph - N/A   Clear
9:00 PM 50.0 °F - 42.8 °F 76% 29.95 in - NNW 5.8 mph - N/A   Clear
11:00 PM 48.2 °F - 42.8 °F 82% 29.98 in - NW 3.5 mph - N/A   Clear